IZ7XUV Weather Reports


time (UTC)temp
F
wind
direction
speed
knots
gust
knots
rain 1hr
in
rain 24hr
in
rain mn
in
humidity
%
barometer
mb
20260503225633 53 222 0.9 2.6 0.00 0.00 0.00 74 1019.4
20260503224603 53 245 0.9 2.6 0.00 0.00 0.00 74 1019.4
20260503223552 54 211 0.9 2.6 0.00 0.00 0.00 73 1019.4
20260503222542 54 240 0.9 1.7 0.00 0.00 0.00 73 1019.5
20260503221532 53 200 0.9 2.6 0.00 0.00 0.00 75 1019.5
20260503220522 53 198 1.7 5.2 0.00 0.00 0.00 76 1019.4
20260503215614 53 219 0.9 2.6 0.00 0.00 0.00 76 1019.2
20260503214603 53 184 1.7 2.6 0.00 0.00 0.00 76 1019.0
20260503213553 54 210 0.9 2.6 0.00 0.00 0.00 76 1019.1
20260503212543 54 230 0.9 1.7 0.00 0.00 0.00 75 1019.1
20260503211533 54 211 1.7 2.6 0.00 0.00 0.00 75 1019.0
20260503210524 55 244 0.9 1.7 0.00 0.00 0.00 73 1019.0
20260503205615 55 249 0.0 0.9 0.00 0.00 0.00 73 1019.0
20260503204604 56 267 0.0 0.9 0.00 0.00 0.00 72 1018.9
20260503203554 56 223 0.9 1.7 0.00 0.00 0.00 71 1018.8
20260503202544 56 253 0.0 1.7 0.00 0.00 0.00 71 1018.9
20260503201534 56 232 0.9 2.6 0.00 0.00 0.00 71 1018.9
20260503200524 57 253 0.9 1.7 0.00 0.00 0.00 71 1018.9
20260503195616 57 217 1.7 2.6 0.00 0.00 0.00 70 1018.7
20260503194606 58 230 0.0 0.9 0.00 0.00 0.00 70 1018.6
20260503193555 58 0.0 0.0 0.00 0.00 0.00 69 1018.5
20260503192606 59 218 0.9 1.7 0.00 0.00 0.00 68 1018.4
20260503191535 61 262 0.0 1.7 0.00 0.00 0.00 64 1018.4
20260503190525 61 0.0 0.0 0.00 0.00 0.00 62 1018.2
20260503185616 61 0.0 0.9 0.00 0.00 0.00 63 1018.2
20260503184606 62 263 0.0 0.9 0.00 0.00 0.00 60 1018.0
20260503183556 63 0.0 0.0 0.00 0.00 0.00 60 1018.0
20260503182546 63 0.0 0.0 0.00 0.00 0.00 57 1018.0
20260503181536 65 0.0 0.0 0.00 0.00 0.00 55 1018.0
20260503180526 67 0.0 0.0 0.00 0.00 0.00 49 1018.0
20260503175516 67 0.0 0.0 0.00 0.00 0.00 47 1017.9
20260503174607 68 0.0 0.0 0.00 0.00 0.00 46 1017.9
20260503173557 69 277 0.0 0.9 0.00 0.00 0.00 43 1018.0
20260503172547 70 304 1.7 2.6 0.00 0.00 0.00 40 1017.9
20260503171537 70 307 0.9 2.6 0.00 0.00 0.00 40 1017.9
20260503170527 70 301 2.6 3.5 0.00 0.00 0.00 40 1017.9
20260503150528 68 82 2.6 6.1 0.00 0.00 0.00 60 1018.4
20260503130531 68 346 2.6 7.0 0.00 0.00 0.00 55 1019.2
20260503110533 70 313 5.2 9.6 0.00 0.00 0.00 49 1019.4
20260503081546 67 293 6.1 11.3 0.00 0.00 0.00 47 1019.9
20260503080536 67 310 6.1 11.3 0.00 0.00 0.00 46 1019.8
20260503072557 66 305 6.1 12.2 0.00 0.00 0.00 45 1020.0
20260503071547 66 323 5.2 11.3 0.00 0.00 0.00 46 1020.0
20260503070537 65 312 7.0 11.3 0.00 0.00 0.00 45 1019.9
20260503054518 62 288 6.1 11.3 0.00 0.00 0.00 43 1019.8
20260503053609 62 281 6.1 9.6 0.00 0.00 0.00 43 1019.6
20260503052559 62 290 5.2 9.6 0.00 0.00 0.00 44 1019.6
20260503051549 61 280 6.1 9.6 0.00 0.00 0.00 44 1019.5
20260503050539 61 289 5.2 11.3 0.00 0.00 0.00 44 1019.5
20260503045530 60 279 6.1 9.6 0.00 0.00 0.00 45 1019.5
20260503044520 59 282 5.2 8.7 0.00 0.00 0.00 46 1019.5
20260503043631 59 279 4.3 8.7 0.00 0.00 0.00 47 1019.5
20260503042600 58 279 4.3 8.7 0.00 0.00 0.00 47 1019.6
20260503041550 58 293 1.7 5.2 0.00 0.00 0.00 48 1019.6
20260503040540 58 286 4.3 7.0 0.00 0.00 0.00 48 1019.5
20260503035530 58 285 3.5 6.1 0.00 0.00 0.00 47 1019.4
20260503034520 58 294 4.3 7.8 0.00 0.00 0.00 47 1019.3
20260503033611 58 288 3.5 6.1 0.00 0.00 0.00 47 1019.5
20260503032601 58 299 5.2 9.6 0.00 0.00 0.00 46 1019.4
20260503031551 58 285 3.5 7.0 0.00 0.00 0.00 47 1019.5
20260503030540 59 286 5.2 9.6 0.00 0.00 0.00 46 1019.5
20260503025531 59 284 5.2 12.2 0.00 0.00 0.00 46 1019.5
20260503024521 59 274 4.3 8.7 0.00 0.00 0.00 46 1019.6
20260503023632 58 287 3.5 7.8 0.00 0.00 0.00 47 1019.7
20260503022602 58 275 4.3 7.8 0.00 0.00 0.00 47 1019.6
20260503021552 58 281 2.6 6.1 0.00 0.00 0.00 47 1019.7
20260503020542 58 278 3.5 6.1 0.00 0.00 0.00 48 1019.6
20260503015532 58 279 3.5 6.1 0.00 0.00 0.00 47 1019.5
20260503014522 58 270 3.5 7.8 0.00 0.00 0.00 47 1019.6
20260503013613 58 282 4.3 7.8 0.00 0.00 0.00 48 1019.7
20260503012603 58 278 3.5 7.8 0.00 0.00 0.00 48 1019.9
20260503011553 58 271 4.3 8.7 0.00 0.00 0.00 48 1019.9
20260503010543 58 276 4.3 7.0 0.00 0.00 0.00 49 1020.1
20260503005534 57 275 4.3 8.7 0.00 0.00 0.00 50 1020.3
20260503004523 57 273 4.3 6.1 0.00 0.00 0.00 50 1020.2
20260503003614 58 280 3.5 6.1 0.00 0.00 0.00 50 1020.4
20260503002604 57 276 3.5 7.0 0.00 0.00 0.00 50 1020.4
20260503001554 57 266 3.5 6.1 0.00 0.00 0.00 50 1020.5
20260503000544 57 270 2.6 6.1 0.00 0.00 0.00 51 1020.6
20260502235534 57 272 2.6 6.1 0.00 0.00 0.00 51 1020.8
20260502234524 57 283 2.6 5.2 0.00 0.00 0.00 52 1020.8
20260502233615 56 272 2.6 5.2 0.00 0.00 0.00 53 1021.0
20260502232605 56 273 2.6 3.5 0.00 0.00 0.00 53 1021.0
20260502231555 56 276 2.6 6.1 0.00 0.00 0.00 53 1021.2
20260502230545 56 284 2.6 5.2 0.00 0.00 0.00 53 1021.3